Regional Weather Roundup
Issued by NWS

Home | Current Version | Previous Version | Text Only | Print | Product List | Glossary On
Versions: 1 2 3 4 5 6 7 8 9 10 11 12 13 14 15 16 17 18 19 20 21 22 23 24 25 26 27 28 29 30 31 32 33 34 35 36 37 38 39 40 41 42 43 44 45 46 47 48 49 50
000
ASUS42 KKEY 210210
RWRKEY

FLORIDA REGIONAL WEATHER ROUNDUP FOR THE FLORIDA KEYS
NATIONAL WEATHER SERVICE KEY WEST FLORIDA
1000 PM EDT WED SEP 20 2017

...SOUTH FLORIDA AND THE KEYS...

CITY           SKY/WX    TMP DP  RH WIND       PRES   REMARKS
FORT MYERS     MOCLDY    79  75  87 E7        29.98R
SW REGIONAL AP CLOUDY    78  73  84 E6        29.98S
NAPLES         CLOUDY    81  74  79 E10       29.97R
MIAMI          CLOUDY    85  74  69 E8        29.98R HX  92
WEST KENDALL   CLOUDY    81  72  74 E7        29.97R
HOMESTEAD      PTCLDY    81  75  83 E5        29.97R
MARATHON       CLEAR     84  72  67 E6        29.96R
BOCA CHICA NAS CLEAR     84  76  76 CALM      29.96R HX  93
KEY WEST INTL  CLEAR     84  74  71 CALM      29.97R HX  91

...INTERNATIONAL WEATHER...

CITY           SKY/WX    TMP DP  RH WIND       PRES   REMARKS
NASSAU BAHAMAS PTCLDY    84  73  70 N5        29.97R HX  91
CANCUN MEXICO  PTCLDY    82  77  83 NE5       29.92R HX  91
COZUMEL MEXICO PTCLDY    81  77  89 E3        29.90R

ADJACENT COASTAL WATERS...

STATION/POSITION TIME  SKY/WX   TEMP    WIND        PRES    WAVE
                                AIR SEA DIR/SP/G            HT/PER
                 (UTC)          (F)     (DEG/KT/KT) (MB)    (FT/S)
PULASKI SHOAL LI 0200            84      80/  7/  8 1015.0R
SAND KEY         0150            83                 1015.4R
LONG KEY         NOT AVBL
MOLASSES REEF    NOT AVBL
FOWEY ROCKS      0100            83 85   70/ 11/ 12 1015.2R
Buoy 42097       0130               85                N/A     1/ 4

$$



USA.gov is the U.S. government's official web portal to all federal, state and local government web resources and services.